Change the Weather History Date:

Thursday, August 8, 2013

  Actual Average Record
Temperature  
Mean Temperature 84 °F -  
Max Temperature 93 °F 92 °F 98 °F (2007)
Min Temperature 78 °F 72 °F 63 °F (1978)
Cooling Degree Days 20    
Growing Degree Days 34 (Base 50)    
Moisture  
Dew Point 75 °F    
Average Humidity 74    
Maximum Humidity 90    
Minimum Humidity 52    
Precipitation  
Precipitation 0.07 in - - ()
Sea Level Pressure  
Sea Level Pressure 30.01 in    
Wind  
Wind Speed 8 mph (SE)    
Max Wind Speed 20 mph    
Max Gust Speed 39 mph    
Visibility 10 miles    
Events Rain    
Averages and records for this station are not official NWS values.
T = Trace of Precipitation, MM = Missing Value Source: NWS Daily Summary

Daily Weather History Graph

Daily Weather History Graph

Search for Another Location

Airport or City:

Trip Planner

Search our weather history database for the weather conditions in past years. The results will help you decide how hot, cold, wet, or windy it might be!

Date:

Astronomy

Aug. 08, 2013 Rise Set
Actual Time 6:52 AM EDT 8:12 PM EDT
Civil Twilight 6:27 AM EDT 8:37 PM EDT
Nautical Twilight 5:57 AM EDT 9:07 PM EDT
Astronomical Twilight 5:26 AM EDT 9:38 PM EDT
Moon 8:24 AM EDT (8/8) 9:06 PM EDT (8/8)
Length of Visible Light 14h 10m
Length of Day
13h 20m
Waxing Crescent, 3% of the Moon is Illuminated
Aug 8
Waxing Crescent
Aug 14
First Quarter
Aug 20
Full
Aug 28
Last Quarter
Sep 5
New

Hourly Weather History & Observations

Time (EDT) Temp. Heat Index Dew Point Humidity Pressure Visibility Wind Dir Wind Speed Gust Speed Precip Events Conditions
12:53 AM 81.0 °F 87.3 °F 75.9 °F 85% 30.00 in 10.0 mi SE 6.9 mph - N/A   Clear
1:53 AM 80.1 °F 85.4 °F 75.9 °F 87% 30.00 in 10.0 mi SE 9.2 mph - N/A   Clear
2:53 AM 80.1 °F 85.4 °F 75.9 °F 87% 29.98 in 10.0 mi SE 9.2 mph - N/A   Clear
3:53 AM 80.1 °F 85.4 °F 75.9 °F 87% 29.97 in 10.0 mi SE 8.1 mph - N/A   Clear
4:53 AM 79.0 °F - 75.9 °F 90% 29.98 in 10.0 mi SE 9.2 mph - N/A   Clear
5:53 AM 79.0 °F - 75.9 °F 90% 29.98 in 10.0 mi ESE 8.1 mph - N/A   Clear
6:53 AM 79.0 °F - 75.9 °F 90% 29.99 in 10.0 mi SE 8.1 mph - N/A   Clear
7:53 AM 80.1 °F 85.4 °F 75.9 °F 87% 29.99 in 10.0 mi ESE 8.1 mph - N/A   Clear
8:53 AM 82.0 °F 89.4 °F 75.9 °F 82% 30.00 in 10.0 mi ESE 8.1 mph - N/A   Clear
9:53 AM 84.0 °F 92.6 °F 75.9 °F 76% 30.02 in 10.0 mi SSE 9.2 mph - N/A   Scattered Clouds
10:37 AM 86.0 °F 95.1 °F 75.2 °F 70% 30.03 in 10.0 mi SSE 8.1 mph - N/A   Mostly Cloudy
10:53 AM 86.0 °F 96.0 °F 75.9 °F 72% 30.03 in 10.0 mi SSE 6.9 mph - N/A   Mostly Cloudy
11:04 AM 86.0 °F 95.1 °F 75.2 °F 70% 30.03 in 10.0 mi SSE 8.1 mph - N/A   Scattered Clouds
11:53 AM 89.1 °F 98.0 °F 73.9 °F 61% 30.03 in 10.0 mi SE 11.5 mph - N/A   Clear
12:53 PM 91.0 °F 101.6 °F 75.0 °F 59% 30.03 in 10.0 mi SSE 9.2 mph - N/A   Clear
1:53 PM 91.0 °F 99.3 °F 73.0 °F 55% 30.01 in 10.0 mi SSE 6.9 mph - N/A   Partly Cloudy
2:53 PM 91.9 °F 99.5 °F 72.0 °F 52% 30.00 in 10.0 mi SSE 6.9 mph - N/A   Clear
3:53 PM 84.0 °F 89.6 °F 72.0 °F 67% 30.01 in 10.0 mi SE 19.6 mph 39.1 mph N/A   Scattered Clouds
4:23 PM 78.8 °F - 71.6 °F 78% 29.99 in 5.0 mi NE 5.8 mph - 0.07 in Rain Light Rain
4:53 PM 82.0 °F 87.4 °F 73.0 °F 74% 29.98 in 10.0 mi East 8.1 mph - 0.07 in   Clear
5:53 PM 88.0 °F 96.5 °F 73.9 °F 63% 29.98 in 10.0 mi ESE 5.8 mph - N/A   Clear
6:53 PM 89.1 °F 99.1 °F 75.0 °F 63% 29.98 in 10.0 mi East 6.9 mph - N/A   Clear
7:53 PM 86.0 °F 92.2 °F 72.0 °F 63% 29.99 in 10.0 mi East 8.1 mph - N/A   Clear
8:53 PM 84.9 °F 91.4 °F 73.0 °F 67% 30.02 in 10.0 mi ESE 10.4 mph - N/A   Scattered Clouds
9:53 PM 82.9 °F 88.8 °F 73.0 °F 72% 30.05 in 10.0 mi SE 11.5 mph - N/A   Clear
10:53 PM 81.0 °F 86.2 °F 73.9 °F 79% 30.07 in 10.0 mi East 3.5 mph - N/A   Clear
11:53 PM 81.0 °F 86.7 °F 75.0 °F 82% 30.06 in 10.0 mi ESE 6.9 mph - N/A   Clear